This demonstration page uses our WeatherBlox Daily Observations layout. Learn more.

Left ArrowRight Arrow

36.19886, -115.1175

Hourly Observations for November 22, 2015

Temp ( °F °C ) Dew Point ( °F °C ) Humidity (%) Winds ( mph kmh ) Pressure ( in mb ) Visibility ( mi km ) Precip ( " mm )
12:53 am 00:53 Clear 46 7.8 15 -9.4 29 29 NNW 6 9 30.21 1023 10 16 0.00 0.00
1:53 am 01:53 Clear 45 7.2 14 -10 29 29 NW 6 9 30.22 1023 10 16 0.00 0.00
2:53 am 02:53 Clear 43 6.1 16 -8.9 34 34 NNW 7 11 30.21 1023 10 16 0.00 0.00
3:53 am 03:53 Clear 43 6.1 17 -8.3 35 35 NW 6 9 30.22 1023 10 16 0.00 0.00
4:53 am 04:53 Clear 43 6.1 16 -8.9 34 34 W 7 11 30.22 1023 10 16 0.00 0.00
5:53 am 05:53 Clear 42 5.6 15 -9.4 33 33 NNW 6 9 30.24 1024 10 16 0.00 0.00
6:53 am 06:53 Sunny 42 5.6 17 -8.3 36 36 WNW 5 7 30.26 1025 10 16 0.00 0.00
7:53 am 07:53 Sunny 48 8.9 15 -9.4 27 27 NW 5 7 30.26 1025 10 16 0.00 0.00
8:53 am 08:53 Sunny 56 13.3 14 -10 19 19 Calm 30.24 1024 10 16 0.00 0.00
9:53 am 09:53 Sunny 58 14.4 11 -11.7 15 15 VRB 5 7 30.24 1024 10 16 0.00 0.00
10:53 am 10:53 Sunny 63 17.2 12 -11.1 13 13 Calm 30.21 1023 10 16 0.00 0.00
11:53 am 11:53 Sunny 63 17.2 11 -11.7 13 13 Calm 30.17 1022 10 16 0.00 0.00
12:53 pm 12:53 Sunny 64 17.8 10 -12.2 12 12 Calm 30.14 1021 10 16 0.00 0.00
1:53 pm 13:53 Sunny 65 18.3 10 -12.2 11 11 Calm 30.12 1020 10 16 0.00 0.00
2:53 pm 14:53 Sunny 66 18.9 10 -12.2 11 11 Calm 30.11 1020 10 16 0.00 0.00
3:53 pm 15:53 Sunny 65 18.3 9 -12.8 11 11 SSE 3 6 30.10 1019 10 16 0.00 0.00
4:53 pm 16:53 Clear 63 17.2 11 -11.7 13 13 Calm 30.09 1019 10 16 0.00 0.00
5:53 pm 17:53 Clear 57 13.9 15 -9.4 19 19 NW 6 9 30.10 1019 10 16 0.00 0.00
6:53 pm 18:53 Clear 54 12.2 16 -8.9 22 22 NW 7 11 30.10 1019 10 16 0.00 0.00
7:53 pm 19:53 Clear 52 11.1 16 -8.9 24 24 NW 6 9 30.10 1019 10 16 0.00 0.00
8:53 pm 20:53 Clear 49 9.4 17 -8.3 28 28 NNW 6 9 30.10 1019 10 16 0.00 0.00
9:53 pm 21:53 Clear 50 10 15 -9.4 25 25 WNW 6 9 30.09 1019 10 16 0.00 0.00
10:53 pm 22:53 Clear 47 8.3 16 -8.9 29 29 NW 3 6 30.10 1019 10 16 0.00 0.00
11:53 pm 23:53 Clear 45 7.2 16 -8.9 31 31 NW 5 7 30.08 1019 10 16 0.00 0.00

Powered by AerisWeather